Weather History for Kendall, FL

Change the Weather History Date:

Friday, January 18, 2013

  Actual Average Record
Temperature  
Mean Temperature 60 °F -  
Max Temperature 64 °F 72 °F 82 °F (2002)
Min Temperature 55 °F 49 °F 37 °F (1997)
Degree Days  
Heating Degree Days 6    
Growing Degree Days 10 (Base 50)    
Moisture  
Dew Point 51 °F    
Average Humidity 71    
Maximum Humidity 86    
Minimum Humidity 58    
Precipitation  
Precipitation 0.00 in - - ()
Sea Level Pressure  
Sea Level Pressure 30.19 in    
Wind  
Wind Speed 10 mph (North)    
Max Wind Speed 18 mph    
Max Gust Speed 26 mph    
Visibility 10 miles    
Events      
Averages and records for this station are not official NWS values.
T = Trace of Precipitation, MM = Missing Value Source: NWS Daily Summary

Daily Weather History Graph

Daily Weather History Graph

Search for Another Location

Airport:

Trip Planner

Search our weather history database for the weather conditions in past years. The results will help you decide how hot, cold, wet, or windy it might be!

Date:

Astronomy

Jan. 18, 2013 Rise Set
Actual Time 7:09 AM EST 5:55 PM EST
Civil Twilight 6:44 AM EST 6:19 PM EST
Nautical Twilight 6:16 AM EST 6:47 PM EST
Astronomical Twilight 5:49 AM EST 7:15 PM EST
Moon 11:36 AM EST (1/18) No Moon Set
Length of Visible Light 11h 35m
Length of Day
10h 45m
Waxing Crescent, 47% of the Moon is Illuminated
Jan 18
Waxing Crescent
Jan 18
First Quarter
Jan 26
Full
Feb 3
Last Quarter
Feb 10
New

Hourly Weather History & Observations

Time (EST) Temp. Dew Point Humidity Pressure Visibility Wind Dir Wind Speed Gust Speed Precip Events Conditions
12:53 AM 61.0 °F 54.0 °F 78% 30.13 in 10.0 mi NNW 12.7 mph - N/A   Clear
1:53 AM 60.1 °F 50.0 °F 69% 30.13 in 10.0 mi NW 15.0 mph 26.5 mph N/A   Partly Cloudy
2:53 AM 59.0 °F 50.0 °F 72% 30.13 in 10.0 mi NNW 11.5 mph - N/A   Clear
3:53 AM 57.9 °F 50.0 °F 75% 30.14 in 10.0 mi NNW 9.2 mph - N/A   Clear
4:53 AM 57.9 °F 48.9 °F 72% 30.15 in 10.0 mi NNW 9.2 mph - N/A   Clear
5:53 AM 57.0 °F 46.9 °F 69% 30.17 in 10.0 mi NNW 12.7 mph - N/A   Clear
6:53 AM 55.9 °F 48.0 °F 75% 30.18 in 10.0 mi North 12.7 mph - N/A   Mostly Cloudy
7:53 AM 55.9 °F 46.9 °F 72% 30.21 in 10.0 mi North 11.5 mph 20.7 mph N/A   Overcast
8:53 AM 57.0 °F 46.9 °F 69% 30.23 in 10.0 mi North 15.0 mph - N/A   Overcast
9:53 AM 57.0 °F 46.0 °F 67% 30.25 in 10.0 mi North 18.4 mph - N/A   Overcast
10:53 AM 60.8 °F 48.2 °F 63% 30.25 in 10.0 mi North 12.7 mph - N/A   Scattered Clouds
11:34 AM 60.8 °F 46.4 °F 59% 30.24 in 10.0 mi NNW 11.5 mph - N/A   Mostly Cloudy
11:53 AM 62.1 °F 48.0 °F 60% 30.23 in 10.0 mi North 12.7 mph - N/A   Mostly Cloudy
12:19 PM 62.6 °F 48.2 °F 59% 30.21 in 10.0 mi North 10.4 mph - N/A   Mostly Cloudy
12:53 PM 63.0 °F 48.0 °F 58% 30.20 in 10.0 mi North 10.4 mph - N/A   Overcast
1:53 PM 62.1 °F 50.0 °F 65% 30.17 in 10.0 mi NNE 9.2 mph - N/A   Overcast
2:53 PM 63.0 °F 50.0 °F 63% 30.17 in 10.0 mi ENE 3.5 mph - N/A   Overcast
3:32 PM 62.6 °F 51.8 °F 68% 30.17 in 10.0 mi Calm Calm - N/A   Overcast
3:53 PM 64.0 °F 51.1 °F 63% 30.18 in 10.0 mi Calm Calm - N/A   Overcast
4:53 PM 64.9 °F 53.1 °F 65% 30.18 in 10.0 mi ENE 3.5 mph - N/A   Overcast
5:13 PM 64.4 °F 53.6 °F 68% 30.18 in 10.0 mi ESE 5.8 mph - N/A   Overcast
5:42 PM 64.4 °F 53.6 °F 68% 30.19 in 10.0 mi East 5.8 mph - N/A   Overcast
5:53 PM 64.0 °F 54.0 °F 70% 30.19 in 10.0 mi ESE 6.9 mph - N/A   Overcast
6:20 PM 62.6 °F 55.4 °F 77% 30.19 in 10.0 mi East 5.8 mph - N/A   Overcast
6:53 PM 63.0 °F 57.0 °F 81% 30.19 in 10.0 mi East 5.8 mph - N/A   Overcast
7:53 PM 64.0 °F 57.9 °F 80% 30.20 in 10.0 mi Calm Calm - N/A   Overcast
8:53 PM 63.0 °F 57.9 °F 84% 30.21 in 10.0 mi West 3.5 mph - N/A   Overcast
9:53 PM 61.0 °F 55.9 °F 83% 30.21 in 10.0 mi West 3.5 mph - N/A   Overcast
10:53 PM 62.1 °F 55.9 °F 80% 30.20 in 10.0 mi WNW 4.6 mph - N/A   Overcast
11:53 PM 62.1 °F 57.9 °F 86% 30.19 in 10.0 mi WNW 5.8 mph - 0.00 in   Overcast